Home   Weather   Marseille   Past weeks

Flag for France Past Weather in Marseille, Provence-Alpes-Côte d'Azur, France — Yesterday and Last 2 Weeks

72 °F


Feels Like: 75 °F
Forecast: 67 / 73 °F
Wind: 13 mph from East

Location: Marseille / Marignane

Current Time: Oct 24, 2016 at 10:59:49 AM

Latest Report: Oct 24, 2016 at 10:30 AM

Visibility: 10 mi

Pressure: 29.92 "Hg

Humidity: 65%

Dew Point: 59 °F

Location of MarseilleLocation

Past Weather in Marseille — Graph


Marseille Temperature Yesterday

Maximum temperature yesterday: 68 °F (at 3:00 PM)
Minimum temperature yesterday: 57 °F (at 12:00 AM)
Average temperature yesterday: 62 °F

High & Low Weather Summary for the Past Weeks

High73 °F (Oct 16, 1:00 PM)100% (Oct 15, 12:00 AM)30.21 "Hg (Oct 15, 12:00 AM)
Low41 °F (Oct 22, 6:30 AM)39% (Oct 11, 3:00 PM)29.50 "Hg (Oct 14, 6:30 AM)
Average60 °F68%29.95 "Hg
* Reported Oct 9 9:00 AM — Oct 24 9:30 AM, Marseille, Weather by CustomWeather, © 2016

Note: Actual official high and low records may vary slightly from our data, if they occured in-between our weather recording intervals... More about our weather records


Marseille Weather History for the Previous 24 Hours

Scroll right to see more
Time TempWeatherWind HumidityBarometerVisibility
9:30 AM
Mon, Oct 24
66 °FPassing clouds.14 mph73%29.92 "HgN/A
9:00 AM66 °FSunny.16 mph73%29.92 "Hg10 mi
8:30 AM66 °FSunny.16 mph73%29.89 "Hg10 mi
8:00 AM66 °FClear.14 mph73%29.89 "Hg10 mi
7:30 AM66 °FClear.5 mph73%29.92 "Hg10 mi
7:00 AM66 °FClear.8 mph73%29.89 "Hg10 mi
6:30 AM66 °FClear.14 mph73%29.89 "Hg10 mi
6:00 AM66 °FClear.9 mph78%29.92 "Hg10 mi
5:30 AM64 °FClear.5 mph78%29.92 "Hg10 mi
5:00 AM64 °FClear.3 mph78%29.92 "Hg10 mi
4:30 AM64 °FClear.2 mph78%29.95 "Hg10 mi
4:00 AM64 °FOvercast.5 mph78%29.92 "HgN/A
3:30 AM63 °FPassing clouds.6 mph83%29.92 "HgN/A
3:00 AM63 °FClear.8 mph83%29.92 "Hg10 mi
2:30 AM63 °FClear.13 mph83%29.92 "Hg10 mi
2:00 AM63 °FClear.16 mph83%29.92 "Hg10 mi
1:30 AM63 °FClear.17 mph83%29.92 "Hg10 mi
1:00 AM63 °FClear.20 mph83%29.89 "Hg10 mi
12:30 AM64 °FClear.16 mph78%29.89 "Hg10 mi
12:00 AM64 °FClear.13 mph78%29.89 "Hg10 mi
11:30 PM
Sun, Oct 23
63 °FClear.13 mph83%29.89 "Hg10 mi
11:00 PM63 °FClear.14 mph83%29.89 "Hg10 mi
10:30 PM64 °FClear.17 mph78%29.89 "Hg10 mi
10:00 PM63 °FClear.13 mph83%29.89 "Hg10 mi
9:30 PM64 °FPassing clouds.18 mph78%29.89 "HgN/A
9:00 PM64 °FClear.18 mph78%29.89 "Hg10 mi
8:30 PM64 °FPassing clouds.17 mph78%29.89 "HgN/A
8:00 PM64 °FPartly cloudy.16 mph78%29.89 "HgN/A
7:30 PM64 °FPassing clouds.17 mph73%29.86 "HgN/A
7:00 PM64 °FPassing clouds.16 mph78%29.86 "HgN/A
6:30 PM66 °FPartly sunny.13 mph73%29.86 "HgN/A
6:00 PM66 °FPartly sunny.12 mph73%29.86 "HgN/A
5:30 PM66 °FPartly sunny.13 mph73%29.83 "HgN/A
5:00 PM68 °FBroken clouds.13 mph69%29.83 "HgN/A
4:30 PM68 °FPartly sunny.16 mph69%29.83 "HgN/A
4:00 PM68 °FBroken clouds.16 mph69%29.83 "HgN/A
3:30 PM68 °FPartly sunny.17 mph69%29.83 "HgN/A
3:00 PM68 °FBroken clouds.14 mph69%29.83 "HgN/A
2:30 PM66 °FMore clouds than sun.15 mph73%29.83 "HgN/A
2:00 PM66 °FBroken clouds.17 mph73%29.83 "HgN/A
1:30 PM64 °FBroken clouds.18 mph73%29.83 "HgN/A
1:00 PM64 °FMostly cloudy.18 mph78%29.83 "HgN/A
12:30 PM64 °FBroken clouds.16 mph73%29.83 "HgN/A
12:00 PM63 °FBroken clouds.16 mph77%29.83 "HgN/A
11:30 AM64 °FPartly sunny.15 mph73%29.83 "HgN/A
11:00 AM63 °FBroken clouds.14 mph77%29.83 "HgN/A
10:30 AM63 °FPartly sunny.16 mph77%29.83 "HgN/A
10:00 AM61 °FPartly sunny.14 mph83%29.83 "HgN/A
Weather by CustomWeather, © 2016

See weather overviewHow to use our weather pages